Weather History for KPDX - October, 2013

Change the Weather History Date:

Tuesday, October 29, 2013

  Actual Average Record
Temperature  
Mean Temperature 46 °F 51 °F  
Max Temperature 59 °F 58 °F 71 °F (1993)
Min Temperature 32 °F 44 °F 26 °F (1971)
Degree Days  
Heating Degree Days 19 14  
Month to date heating degree days 318 287  
Since 1 July heating degree days 408 390  
Cooling Degree Days 0 0  
Month to date cooling degree days 0 0  
Year to date cooling degree days 539 422  
Moisture  
Dew Point 35 °F    
Average Humidity 68    
Maximum Humidity 100    
Minimum Humidity 36    
Precipitation  
Precipitation 0.00 in 0.14 in 1.14 in (1997)
Month to date precipitation 1.10 2.71  
Year to date precipitation 22.00 24.62  
Snow  
Snow 0.00 in - - ()
Month to date snowfall 0.0  
Snow Depth 0.00 in    
Sea Level Pressure  
Sea Level Pressure 30.02 in    
Wind  
Wind Speed 4 mph (West)    
Max Wind Speed 8 mph    
Max Gust Speed 16 mph    
Visibility 10 miles    
Events      
T = Trace of Precipitation, MM = Missing Value Source: NWS Daily Summary

Daily Weather History Graph

Daily Weather History Graph

Search for Another Location

Airport or City:

Trip Planner

Search our weather history database for the weather conditions in past years. The results will help you decide how hot, cold, wet, or windy it might be!

Date:

Astronomy

Oct. 29, 2013 Rise Set
Actual Time 7:46 AM PDT 6:01 PM PDT
Civil Twilight 7:15 AM PDT 6:31 PM PDT
Nautical Twilight 6:40 AM PDT 7:06 PM PDT
Astronomical Twilight 6:06 AM PDT 7:41 PM PDT
Moon 2:27 AM PDT (10/29) 3:30 PM PDT (10/29)
Length of Visible Light 11h 16m
Length of Day
10h 14m
Waning Crescent, 24% of the Moon is Illuminated
Oct 29
Waning Crescent
Nov 3
New
Nov 9
First Quarter
Nov 17
Full
Nov 25
Last Quarter

Hourly Weather History & Observations

Time (PDT) Temp. Windchill Dew Point Humidity Pressure Visibility Wind Dir Wind Speed Gust Speed Precip Events Conditions
12:53 AM 41.0 °F 37.1 °F 37.9 °F 89% 29.95 in 10.0 mi WSW 5.8 mph - N/A   Clear
1:53 AM 39.0 °F 34.0 °F 36.0 °F 89% 29.96 in 10.0 mi SE 6.9 mph - N/A   Clear
2:53 AM 39.9 °F 37.8 °F 37.9 °F 93% 29.97 in 10.0 mi West 3.5 mph - N/A   Partly Cloudy
3:53 AM 39.0 °F - 37.0 °F 93% 29.98 in 10.0 mi Calm Calm - N/A   Clear
4:53 AM 37.0 °F 33.3 °F 35.1 °F 93% 29.99 in 10.0 mi West 4.6 mph - N/A   Clear
5:53 AM 36.0 °F - 35.1 °F 97% 30.01 in 10.0 mi Calm Calm - N/A   Clear
6:53 AM 35.1 °F 32.2 °F 33.1 °F 92% 30.01 in 10.0 mi West 3.5 mph - N/A   Clear
7:12 AM 35.6 °F - 33.8 °F 93% 30.02 in 10.0 mi Calm Calm - N/A   Partly Cloudy
7:53 AM 34.0 °F - 33.1 °F 96% 30.03 in 7.0 mi Calm Calm - N/A   Partly Cloudy
8:53 AM 39.9 °F 37.8 °F 37.0 °F 89% 30.05 in 10.0 mi WNW 3.5 mph - N/A   Partly Cloudy
9:53 AM 43.0 °F 40.3 °F 37.9 °F 82% 30.06 in 10.0 mi West 4.6 mph - N/A   Partly Cloudy
10:53 AM 46.0 °F - 37.0 °F 71% 30.05 in 10.0 mi Calm Calm - N/A   Clear
11:53 AM 48.9 °F - 37.0 °F 64% 30.05 in 10.0 mi NW 3.5 mph - N/A   Clear
12:53 PM 52.0 °F - 35.1 °F 53% 30.03 in 10.0 mi NW 3.5 mph - N/A   Clear
1:53 PM 54.0 °F - 34.0 °F 47% 30.01 in 10.0 mi West 5.8 mph - N/A   Clear
2:53 PM 55.9 °F - 33.1 °F 42% 30.00 in 10.0 mi West 8.1 mph - N/A   Partly Cloudy
3:53 PM 57.9 °F - 30.9 °F 36% 30.00 in 10.0 mi WNW 6.9 mph - N/A   Partly Cloudy
4:53 PM 57.9 °F - 33.1 °F 39% 29.99 in 10.0 mi NW 5.8 mph - N/A   Clear
5:53 PM 54.0 °F - 33.1 °F 45% 30.00 in 10.0 mi Calm Calm - N/A   Partly Cloudy
6:53 PM 48.9 °F - 35.1 °F 59% 30.01 in 10.0 mi Calm Calm - N/A   Partly Cloudy
7:53 PM 46.0 °F - 34.0 °F 63% 30.02 in 10.0 mi Calm Calm - N/A   Clear
8:53 PM 44.1 °F 42.5 °F 35.1 °F 71% 30.04 in 10.0 mi SE 3.5 mph - N/A   Clear
9:53 PM 43.0 °F 40.3 °F 36.0 °F 76% 30.05 in 10.0 mi SE 4.6 mph - N/A   Clear
10:53 PM 45.0 °F 41.8 °F 34.0 °F 65% 30.07 in 10.0 mi ESE 5.8 mph - N/A   Clear
11:53 PM 41.0 °F 36.4 °F 34.0 °F 76% 30.07 in 10.0 mi ESE 6.9 mph - N/A   Clear